CW5507 Weather Reports


Display with metric or nautical units.
time (UTC)temp
F
wind
direction
speed
MPH
gust
MPH
rain 1hr
in
rain 24hr
in
rain mn
in
humidity
%
barometer
mb
20200401112501 29 190 0.0 4.0 0.00 0.17 0.00 76 1019.5
20200401111957 29 194 0.0 4.0 0.00 0.17 0.00 76 1019.5
20200401111457 28 182 0.0 2.0 0.00 0.17 0.00 78 1019.5
20200401110950 28 182 0.0 2.0 0.00 0.17 0.00 78 1019.6
20200401110444 28 182 0.0 1.0 0.00 0.17 0.00 78 1019.6
20200401105939 28 182 0.0 0.0 0.00 0.17 0.00 78 1019.6
20200401105418 28 182 0.0 2.0 0.00 0.17 0.00 77 1019.7
20200401104900 29 182 0.0 2.0 0.00 0.18 0.00 77 1019.7
20200401104353 29 182 0.0 4.0 0.00 0.18 0.00 76 1019.7
20200401103846 29 182 0.0 4.0 0.00 0.18 0.00 76 1019.6
20200401103339 29 182 0.0 2.0 0.00 0.18 0.00 76 1019.6
20200401102839 29 182 0.0 2.0 0.00 0.18 0.00 76 1019.6
20200401102309 29 182 0.0 3.0 0.00 0.19 0.00 76 1019.6
20200401101750 29 162 0.0 5.0 0.00 0.19 0.00 76 1019.6
20200401101249 29 161 0.0 5.0 0.00 0.19 0.00 76 1019.6
20200401100751 29 134 0.0 2.0 0.00 0.19 0.00 76 1019.5
20200401100247 29 137 0.0 3.0 0.00 0.19 0.00 75 1019.5
20200401095731 29 137 1.0 4.0 0.00 0.19 0.00 74 1019.5
20200401095214 29 201 1.0 4.0 0.00 0.19 0.00 74 1019.5
20200401094713 28 279 1.0 4.0 0.00 0.20 0.00 76 1019.5
20200401094210 28 166 1.0 4.0 0.00 0.20 0.00 77 1019.5
20200401093705 29 173 1.0 4.0 0.00 0.20 0.00 76 1019.6
20200401093201 29 163 1.0 3.0 0.00 0.21 0.00 75 1019.6
20200401092648 29 162 1.0 3.0 0.00 0.21 0.00 74 1019.8
20200401092131 29 159 0.0 4.0 0.00 0.21 0.00 75 1019.8
20200401091631 29 160 0.0 2.0 0.00 0.21 0.00 74 1019.8
20200401091126 29 160 0.0 5.0 0.00 0.21 0.00 75 1020.0
20200401090607 29 160 0.0 5.0 0.00 0.22 0.00 75 1020.0
20200401090113 29 154 0.0 2.0 0.00 0.22 0.00 76 1020.0
20200401085558 29 154 0.0 2.0 0.00 0.22 0.00 76 1020.0
20200401085052 29 154 0.0 3.0 0.00 0.23 0.00 77 1020.0
20200401084542 29 154 1.0 7.0 0.00 0.23 0.00 77 1020.0
20200401084039 29 153 1.0 7.0 0.00 0.23 0.00 76 1019.6
20200401083531 29 141 1.0 6.0 0.00 0.24 0.00 78 1019.6
20200401083029 29 187 1.0 5.0 0.00 0.24 0.00 80 1019.6
20200401082543 29 39 2.0 10.0 0.00 0.24 0.00 81 1019.8
20200401082029 30 353 3.0 16.0 0.00 0.24 0.00 82 1019.8
20200401081530 30 354 3.0 16.0 0.00 0.25 0.00 82 1019.8
20200401081030 30 358 3.0 11.0 0.00 0.25 0.00 82 1020.3
20200401080530 29 343 1.0 10.0 0.00 0.25 0.00 81 1020.3
20200401080030 29 164 0.0 3.0 0.00 0.25 0.00 80 1020.3
20200401075526 29 168 0.0 3.0 0.00 0.25 0.00 79 1020.4
20200401075026 29 161 0.0 4.0 0.00 0.25 0.00 80 1020.4
20200401074526 29 162 0.0 4.0 0.00 0.25 0.00 80 1020.4
20200401074008 29 161 0.0 3.0 0.00 0.25 0.00 80 1020.4
20200401073505 29 161 0.0 2.0 0.00 0.25 0.00 80 1020.4
20200401073007 29 160 0.0 2.0 0.00 0.25 0.00 80 1020.4
20200401072448 29 159 0.0 2.0 0.00 0.25 0.00 80 1020.4
20200401071948 29 161 0.0 1.0 0.00 0.25 0.00 80 1020.4
20200401071432 29 161 0.0 3.0 0.00 0.26 0.00 78 1020.4
20200401070932 29 161 0.0 3.0 0.00 0.26 0.00 79 1020.5
20200401070421 29 160 0.0 1.0 0.00 0.26 0.00 79 1020.5
20200401065922 29 160 0.0 0.0 0.00 0.26 0.26 79 1020.5
20200401065416 29 160 0.0 0.0 0.00 0.26 0.26 78 1020.4
20200401064854 29 160 0.0 0.0 0.00 0.26 0.26 78 1020.4
20200401064352 30 160 0.0 0.0 0.00 0.26 0.26 78 1020.4
20200401063848 30 160 0.0 0.0 0.00 0.26 0.26 78 1021.1
20200401063321 30 160 0.0 0.0 0.00 0.27 0.26 77 1021.1
20200401062804 30 160 0.0 0.0 0.00 0.27 0.26 76 1021.1
20200401062258 30 160 0.0 1.0 0.00 0.27 0.26 75 1021.0
20200401061746 30 158 0.0 2.0 0.00 0.27 0.26 77 1021.0
20200401061238 30 158 1.0 6.0 0.00 0.27 0.26 78 1021.0
20200401060728 30 160 1.0 6.0 0.00 0.27 0.26 78 1020.7
20200401060208 30 214 0.0 4.0 0.00 0.27 0.26 78 1020.7
20200401055707 31 215 0.0 4.0 0.00 0.28 0.26 79 1020.7
20200401055126 31 215 0.0 4.0 0.00 0.28 0.26 78 1020.9
20200401054625 31 213 0.0 1.0 0.00 0.28 0.26 79 1020.9
20200401054104 31 213 0.0 1.0 0.00 0.28 0.26 79 1021.6
20200401053605 31 211 0.0 3.0 0.00 0.28 0.26 79 1021.6
20200401053057 32 211 2.0 6.0 0.00 0.29 0.26 78 1021.6
20200401052557 32 213 2.0 10.0 0.00 0.29 0.26 77 1021.5
20200401052059 32 140 2.0 10.0 0.00 0.29 0.26 75 1021.5
20200401051603 31 188 2.0 6.0 0.00 0.29 0.26 75 1021.5
20200401051053 31 158 1.0 6.0 0.00 0.29 0.26 74 1021.2
20200401050544 31 230 1.0 10.0 0.00 0.30 0.26 74 1021.2
20200401050049 31 232 1.0 10.0 0.00 0.30 0.26 74 1021.2
20200401045538 31 154 2.0 7.0 0.00 0.30 0.26 74 1021.2
20200401045044 32 148 2.0 7.0 0.00 0.30 0.26 72 1021.2
20200401044537 32 201 2.0 12.0 0.00 0.31 0.26 71 1021.2
20200401044035 31 198 3.0 12.0 0.00 0.31 0.26 71 1021.2
20200401043547 31 157 1.0 7.0 0.00 0.31 0.26 74 1021.2
20200401043043 31 146 0.0 5.0 0.00 0.31 0.26 75 1021.2
20200401042521 31 167 0.0 2.0 0.00 0.31 0.26 74 1021.2
20200401041957 31 166 0.0 1.0 0.00 0.31 0.26 77 1021.2
20200401041447 31 166 0.0 1.0 0.00 0.32 0.26 76 1021.2
20200401040933 32 167 0.0 0.0 0.00 0.32 0.26 76 1021.4
20200401040425 32 167 0.0 2.0 0.00 0.32 0.26 77 1021.4
20200401035925 32 167 0.0 2.0 0.00 0.33 0.26 77 1021.4
20200401035405 31 166 1.0 7.0 0.00 0.33 0.26 77 1021.3
20200401034858 31 167 1.0 7.0 0.00 0.33 0.26 78 1021.3
20200401034400 31 165 0.0 1.0 0.00 0.33 0.26 80 1021.3
20200401033854 31 166 0.0 0.0 0.00 0.33 0.26 80 1021.1
20200401033335 31 166 0.0 1.0 0.00 0.33 0.26 80 1021.1
20200401032828 31 166 0.0 1.0 0.00 0.34 0.26 80 1021.1
20200401032321 31 165 0.0 2.0 0.00 0.34 0.26 79 1021.0
20200401031816 32 165 0.0 2.0 0.00 0.34 0.26 78 1021.0
20200401031316 32 165 0.0 0.0 0.00 0.35 0.26 79 1021.0
20200401030818 32 165 0.0 0.0 0.00 0.35 0.26 78 1020.9
20200401030244 32 165 0.0 0.0 0.00 0.35 0.26 78 1020.9
20200401025741 32 165 0.0 0.0 0.00 0.35 0.26 78 1020.9
20200401025237 33 165 0.0 1.0 0.00 0.35 0.26 77 1020.8
20200401024733 33 165 0.0 1.0 0.00 0.36 0.26 76 1020.8
20200401024225 33 165 0.0 0.0 0.00 0.36 0.26 76 1020.8
20200401023723 33 165 0.0 0.0 0.00 0.37 0.26 75 1020.8
20200401023203 33 163 0.0 3.0 0.00 0.37 0.26 73 1020.8
20200401022702 33 165 0.0 3.0 0.00 0.37 0.26 72 1020.7
20200401022214 33 165 0.0 2.0 0.00 0.37 0.26 71 1020.7
20200401021713 34 165 0.0 3.0 0.00 0.38 0.26 71 1020.7
20200401021153 34 165 1.0 5.0 0.00 0.38 0.26 70 1020.5
20200401020640 34 166 1.0 6.0 0.00 0.39 0.26 69 1020.5
20200401020130 34 169 1.0 6.0 0.00 0.39 0.26 68 1020.5
20200401015647 35 109 0.0 4.0 0.00 0.40 0.26 66 1020.5
20200401015112 35 17 1.0 6.0 0.00 0.40 0.26 66 1020.5
20200401014529 35 17 1.0 6.0 0.00 0.41 0.26 64 1020.5
20200401014022 35 265 1.0 6.0 0.00 0.41 0.26 65 1020.6
20200401013522 35 7 1.0 7.0 0.00 0.41 0.26 63 1020.6
20200401013023 36 178 1.0 7.0 0.00 0.41 0.26 63 1020.6
20200401012523 36 65 1.0 6.0 0.00 0.42 0.26 64 1020.5
20200401012011 36 210 2.0 9.0 0.00 0.42 0.26 63 1020.5
20200401011508 36 352 2.0 9.0 0.00 0.42 0.26 64 1020.5
20200401011009 36 12 2.0 12.0 0.00 0.43 0.26 64 1020.5
20200401010504 36 80 3.0 12.0 0.01 0.43 0.26 62 1020.5
20200401010005 36 352 4.0 14.0 0.01 0.43 0.26 64 1020.5
20200401005459 36 331 3.0 14.0 0.01 0.44 0.26 64 1020.5
20200401004955 36 334 2.0 10.0 0.01 0.44 0.26 64 1020.5
20200401004448 36 258 3.0 12.0 0.01 0.45 0.26 68 1020.5
20200401003947 36 6 3.0 12.0 0.01 0.45 0.26 67 1020.5
20200401003449 36 9 2.0 9.0 0.01 0.46 0.26 71 1020.5
20200401002945 36 16 2.0 9.0 0.01 0.46 0.26 72 1020.5
20200401002440 36 159 1.0 5.0 0.01 0.47 0.26 76 1020.5
20200401001925 36 168 1.0 5.0 0.01 0.47 0.26 78 1020.5
20200401001427 36 64 1.0 9.0 0.01 0.48 0.26 78 1020.5
20200401000921 36 62 1.0 9.0 0.01 0.48 0.26 78 1020.5
20200401000420 37 46 2.0 9.0 0.00 0.47 0.25 74 1020.5
20200331235913 38 351 7.0 17.0 0.00 0.48 0.25 71 1020.5
20200331235414 39 347 6.0 17.0 0.00 0.48 0.25 66 1019.8
20200331234904 40 357 3.0 13.0 0.00 0.48 0.25 63 1019.8
20200331234403 40 64 2.0 11.0 0.00 0.48 0.25 59 1019.8
20200331233903 40 341 2.0 11.0 0.00 0.48 0.25 61 1019.5
20200331233403 40 300 3.0 11.0 0.00 0.49 0.25 56 1019.5
20200331232904 40 26 3.0 11.0 0.00 0.50 0.25 59 1019.5
20200331232353 40 350 3.0 14.0 0.00 0.50 0.25 61 1019.7
20200331231853 40 177 3.0 14.0 0.00 0.51 0.25 61 1019.7
20200331231352 40 194 2.0 9.0 0.00 0.52 0.25 63 1019.7
20200331230846 40 45 3.0 14.0 0.00 0.53 0.25 63 1019.6
20200331230422 40 228 4.0 14.0 0.00 0.54 0.25 60 1019.6
20200331225846 40 64 4.0 14.0 0.00 0.54 0.25 65 1019.6
20200331225340 41 239 3.0 12.0 0.00 0.55 0.25 62 1019.4
20200331224835 41 175 3.0 9.0 0.00 0.55 0.25 61 1019.4
20200331224335 41 83 4.0 17.0 0.00 0.56 0.25 61 1019.4
20200331223835 41 142 4.0 17.0 0.00 0.56 0.25 55 1019.8
20200331223333 41 7 5.0 18.0 0.00 0.56 0.25 57 1019.8
20200331222833 42 31 5.0 18.0 0.00 0.56 0.25 53 1019.8
20200331222340 42 147 5.0 15.0 0.00 0.57 0.25 57 1019.8
20200331221831 42 83 6.0 18.0 0.00 0.57 0.25 62 1019.8
20200331221332 42 322 7.0 18.0 0.00 0.58 0.25 56 1019.8
20200331220829 42 345 6.0 17.0 0.00 0.58 0.25 58 1019.6
20200331220331 42 357 5.0 17.0 0.01 0.58 0.25 59 1019.6
20200331215830 42 345 3.0 11.0 0.01 0.58 0.25 59 1019.6
20200331215329 42 45 3.0 12.0 0.01 0.59 0.25 63 1019.7
20200331214829 41 353 2.0 12.0 0.01 0.59 0.25 67 1019.7
20200331214328 41 3 0.0 6.0 0.01 0.60 0.25 81 1019.7
20200331213827 40 355 0.0 1.0 0.01 0.60 0.25 75 1020.1
20200331213326 40 355 1.0 8.0 0.01 0.60 0.25 84 1020.1
20200331212820 39 352 2.0 10.0 0.01 0.61 0.25 81 1020.1
20200331212320 40 348 5.0 19.0 0.01 0.61 0.25 72 1019.7
20200331211822 42 27 8.0 19.0 0.01 0.61 0.25 65 1019.7
20200331211322 43 341 5.0 17.0 0.01 0.62 0.25 66 1019.7
20200331210815 42 300 1.0 10.0 0.01 0.62 0.25 62 1019.4
20200331210307 42 43 0.0 7.0 0.00 0.62 0.24 64 1019.4
20200331205801 40 28 1.0 12.0 0.00 0.62 0.24 63 1019.4
20200331205301 40 131 1.0 12.0 0.00 0.63 0.24 60 1019.8
20200331204751 40 200 2.0 14.0 0.00 0.63 0.24 64 1019.8
20200331204242 39 195 2.0 14.0 0.00 0.64 0.24 64 1019.8
20200331203735 40 170 1.0 7.0 0.00 0.64 0.24 71 1019.5
20200331203229 40 216 1.0 7.0 0.00 0.65 0.24 68 1019.5
20200331202729 42 156 0.0 2.0 0.00 0.66 0.24 63 1019.5
20200331202228 44 148 1.0 7.0 0.00 0.67 0.24 62 1019.1
20200331201728 44 241 1.0 7.0 0.00 0.67 0.24 59 1019.1
20200331201228 44 355 0.0 4.0 0.00 0.68 0.24 65 1019.1
20200331200730 43 327 0.0 3.0 0.00 0.68 0.24 67 1019.0
20200331200228 42 352 1.0 1.0 0.01 0.69 0.24 70 1019.0
20200331195719 41 217 0.0 1.0 0.01 0.70 0.24 72 1019.0
20200331195217 41 357 0.0 1.0 0.01 0.71 0.24 74 1019.2
20200331194718 40 359 1.0 10.0 0.01 0.71 0.24 78 1019.2
20200331194215 40 262 1.0 10.0 0.02 0.71 0.24 76 1019.2
20200331193716 41 227 1.0 7.0 0.02 0.72 0.24 74 1019.2
20200331193213 41 4 1.0 7.0 0.03 0.72 0.24 75 1019.2
20200331192713 41 199 1.0 3.0 0.03 0.73 0.24 75 1019.2
20200331192209 40 284 1.0 4.0 0.04 0.74 0.24 78 1019.5
20200331191707 40 266 1.0 14.0 0.04 0.75 0.24 73 1019.5
20200331191206 39 243 1.0 14.0 0.05 0.75 0.24 74 1019.5
20200331190653 39 240 1.0 9.0 0.05 0.75 0.24 69 1019.3
20200331190151 39 282 1.0 9.0 0.05 0.74 0.23 73 1019.3
20200331185650 39 276 0.0 1.0 0.06 0.75 0.23 78 1019.5
20200331185150 38 239 0.0 1.0 0.06 0.76 0.23 81 1019.5
20200331184648 38 133 0.0 1.0 0.06 0.76 0.23 80 1019.5
20200331184133 37 228 0.0 1.0 0.06 0.76 0.22 80 1019.7
20200331183629 37 174 0.0 1.0 0.06 0.77 0.22 79 1019.7
20200331183121 37 333 0.0 1.0 0.06 0.76 0.21 81 1019.7
20200331182614 36 193 1.0 4.0 0.06 0.77 0.21 81 1019.5
20200331182111 36 186 2.0 9.0 0.05 0.76 0.20 82 1019.5
20200331181609 35 85 3.0 9.0 0.05 0.76 0.20 82 1019.5
20200331181109 35 157 3.0 7.0 0.05 0.76 0.19 81 1019.8
20200331180554 35 143 2.0 15.0 0.05 0.76 0.19 84 1019.8
20200331180046 34 224 0.0 15.0 0.05 0.77 0.18 85 1019.8
20200331175547 34 232 1.0 5.0 0.04 0.77 0.17 85 1019.3
20200331175036 34 52 1.0 4.0 0.04 0.77 0.17 86 1019.3
20200331174514 34 305 1.0 7.0 0.04 0.77 0.17 86 1019.3
20200331174016 33 219 2.0 10.0 0.04 0.77 0.16 86 1019.3
20200331173513 33 350 2.0 10.0 0.04 0.77 0.16 86 1019.3
20200331173013 33 195 0.0 4.0 0.03 0.76 0.15 88 1019.3
20200331172507 33 185 1.0 4.0 0.03 0.78 0.15 88 1018.9
20200331172007 33 154 1.0 5.0 0.03 0.78 0.15 88 1018.9
20200331171504 33 189 1.0 5.0 0.03 0.77 0.14 88 1018.9
20200331170956 33 184 1.0 6.0 0.03 0.78 0.14 88 1018.8
20200331170453 33 183 1.0 6.0 0.02 0.78 0.13 88 1018.8
20200331165954 33 147 0.0 3.0 0.02 0.79 0.13 89 1018.8
20200331165456 33 132 0.0 1.0 0.02 0.79 0.13 89 1018.8
20200331164947 33 132 0.0 1.0 0.02 0.80 0.13 89 1018.8
20200331164421 33 130 0.0 2.0 0.02 0.81 0.13 89 1018.8
20200331163918 33 129 0.0 2.0 0.02 0.81 0.12 89 1018.5
20200331163419 33 132 0.0 1.0 0.02 0.82 0.12 89 1018.5
20200331162853 33 131 0.0 0.0 0.02 0.82 0.12 89 1018.5
20200331162351 33 132 0.0 1.0 0.02 0.83 0.12 89 1018.5
20200331161849 33 131 0.0 1.0 0.01 0.82 0.12 89 1018.5
20200331161333 33 132 0.0 1.0 0.01 0.82 0.11 89 1018.5
20200331160831 33 131 0.0 1.0 0.01 0.83 0.11 89 1017.9
20200331160330 33 135 0.0 1.0 0.02 0.83 0.11 89 1017.9
20200331155829 33 132 0.0 4.0 0.02 0.84 0.11 89 1017.9
20200331155326 33 135 0.0 4.0 0.02 0.84 0.11 89 1018.2
20200331154806 33 57 0.0 3.0 0.02 0.84 0.11 89 1018.2
20200331154308 33 57 0.0 4.0 0.02 0.84 0.11 89 1018.2
20200331153732 33 72 1.0 6.0 0.01 0.83 0.10 89 1017.8
20200331153225 33 71 2.0 10.0 0.01 0.83 0.10 89 1017.8
20200331152715 33 284 2.0 10.0 0.01 0.83 0.10 89 1017.8
20200331152206 33 195 3.0 19.0 0.01 0.84 0.10 89 1017.2
20200331151654 33 165 2.0 19.0 0.01 0.84 0.10 89 1017.2
20200331151158 33 222 2.0 6.0 0.01 0.84 0.10 90 1017.0
20200331150653 33 151 1.0 5.0 0.01 0.84 0.10 90 1017.0
20200331150154 33 203 0.0 4.0 0.00 0.84 0.09 90 1017.0
20200331145701 33 194 0.0 1.0 0.00 0.84 0.09 90 1016.9
20200331145153 33 191 0.0 1.0 0.00 0.84 0.09 90 1016.9
20200331144650 33 194 0.0 1.0 0.00 0.84 0.09 90 1016.9
20200331144140 33 188 1.0 5.0 0.00 0.84 0.09 90 1016.5
20200331143628 33 215 1.0 5.0 0.00 0.84 0.09 91 1016.5
20200331143127 33 206 1.0 4.0 0.00 0.85 0.09 91 1016.5
20200331142611 33 125 0.0 3.0 0.00 0.85 0.09 91 1016.4
20200331142110 33 199 0.0 3.0 0.00 0.85 0.09 90 1016.4
20200331141609 33 201 0.0 0.0 0.00 0.86 0.09 90 1016.4
20200331141105 33 200 0.0 2.0 0.00 0.86 0.09 90 1016.4
20200331140600 33 197 0.0 2.0 0.00 0.87 0.09 91 1016.4
20200331140050 33 201 0.0 1.0 0.00 0.87 0.09 91 1016.4
20200331135546 33 198 0.0 3.0 0.00 0.87 0.09 90 1016.3
20200331135036 33 197 0.0 3.0 0.00 0.88 0.09 91 1016.3
20200331134528 33 200 0.0 3.0 0.00 0.88 0.09 91 1016.3
20200331134021 33 201 0.0 3.0 0.00 0.88 0.09 90 1016.5
20200331133517 33 201 0.0 3.0 0.00 0.88 0.09 90 1016.5
20200331133018 32 201 0.0 3.0 0.00 0.89 0.09 90 1016.5
20200331132517 32 203 0.0 2.0 0.00 0.89 0.09 90 1016.6
20200331132019 32 203 0.0 3.0 0.00 0.90 0.09 90 1016.6
20200331131514 32 203 0.0 3.0 0.00 0.90 0.09 90 1016.6
20200331131006 32 205 0.0 0.0 0.00 0.90 0.09 90 1016.5
20200331130506 32 204 0.0 0.0 0.00 0.90 0.09 90 1016.5
20200331130005 32 205 0.0 0.0 0.00 0.90 0.09 90 1016.5
20200331125505 33 204 0.0 0.0 0.00 0.90 0.09 90 1016.4
20200331125003 33 205 0.0 0.0 0.00 0.90 0.09 90 1016.4
20200331124502 33 205 0.0 0.0 0.00 0.90 0.09 90 1016.4
20200331123959 33 204 0.0 0.0 0.00 0.91 0.09 90 1015.9
20200331123457 33 204 0.0 0.0 0.00 0.91 0.09 90 1015.9
20200331122958 33 205 0.0 2.0 0.00 0.91 0.09 90 1015.9
20200331122452 33 205 1.0 7.0 0.00 0.91 0.09 90 1016.4
20200331121953 33 206 0.0 7.0 0.00 0.91 0.09 89 1016.4
20200331121453 33 248 0.0 0.0 0.00 0.91 0.09 89 1016.4
20200331120959 33 248 0.0 0.0 0.00 0.91 0.09 89 1015.7
20200331120442 33 248 0.0 0.0 0.00 0.92 0.09 89 1015.7
20200331115934 33 248 0.0 0.0 0.00 0.92 0.09 89 1015.7
20200331115433 33 249 0.0 2.0 0.00 0.92 0.09 89 1016.4
20200331114927 33 245 0.0 2.0 0.01 0.92 0.09 89 1016.4
20200331114422 33 245 0.0 4.0 0.01 0.92 0.09 89 1016.4
20200331113904 33 244 0.0 4.0 0.01 0.93 0.09 89 1016.0
20200331113401 33 160 0.0 2.0 0.01 0.93 0.09 89 1016.0
20200331112855 33 160 0.0 4.0 0.01 0.93 0.09 89 1016.0